TimeCDT,TemperatureF,Dew PointF,Humidity,Sea Level PressureIn,VisibilityMPH,Wind Direction,Wind SpeedMPH,Gust SpeedMPH,PrecipitationIn,Events,Conditions,WindDirDegrees,DateUTC
12:54 AM,37.9,21.9,53,29.94,10.0,WSW,4.6,-,N/A,,Clear,240,2014-04-11 05:54:00
1:54 AM,41.0,21.9,47,29.94,10.0,West,5.8,-,N/A,,Clear,260,2014-04-11 06:54:00
2:54 AM,39.9,21.0,47,29.95,10.0,West,6.9,-,N/A,,Clear,260,2014-04-11 07:54:00
3:54 AM,39.9,21.9,49,29.95,10.0,West,5.8,-,N/A,,Clear,270,2014-04-11 08:54:00
4:54 AM,37.9,21.9,53,29.96,10.0,West,4.6,-,N/A,,Clear,270,2014-04-11 09:54:00
5:54 AM,37.0,23.0,57,29.96,10.0,WSW,4.6,-,N/A,,Scattered Clouds,250,2014-04-11 10:54:00
6:54 AM,37.0,25.0,62,29.97,10.0,Calm,Calm,-,N/A,,Partly Cloudy,0,2014-04-11 11:54:00
7:54 AM,39.9,27.0,60,30.00,10.0,NW,5.8,-,N/A,,Mostly Cloudy,320,2014-04-11 12:54:00
8:54 AM,45.0,27.0,49,30.00,10.0,Variable,3.5,-,N/A,,Overcast,0,2014-04-11 13:54:00
9:54 AM,48.0,28.0,46,30.01,10.0,WSW,4.6,-,N/A,,Overcast,250,2014-04-11 14:54:00
10:54 AM,48.0,30.9,52,30.01,10.0,West,15.0,19.6,0.00,Rain,Light Rain,270,2014-04-11 15:54:00
11:54 AM,46.0,36.0,68,30.01,10.0,SW,6.9,-,0.00,,Overcast,220,2014-04-11 16:54:00
12:54 PM,48.0,37.0,66,30.00,10.0,West,3.5,-,0.00,,Overcast,260,2014-04-11 17:54:00
1:54 PM,50.0,39.0,66,29.99,10.0,North,6.9,-,0.00,,Overcast,360,2014-04-11 18:54:00
2:54 PM,52.0,39.0,61,29.98,10.0,North,3.5,-,N/A,,Mostly Cloudy,10,2014-04-11 19:54:00
3:54 PM,57.0,39.9,53,29.96,10.0,NW,6.9,-,N/A,,Clear,320,2014-04-11 20:54:00
4:54 PM,57.9,37.0,46,29.96,10.0,NNW,5.8,-,N/A,,Clear,340,2014-04-11 21:54:00
5:54 PM,57.0,35.1,44,29.96,10.0,North,10.4,-,N/A,,Clear,350,2014-04-11 22:54:00
6:54 PM,54.0,33.1,45,29.96,10.0,North,8.1,-,N/A,,Clear,350,2014-04-11 23:54:00
7:54 PM,50.0,30.9,48,29.97,10.0,Calm,Calm,-,N/A,,Clear,0,2014-04-12 00:54:00
8:54 PM,46.9,30.9,54,29.99,10.0,Calm,Calm,-,N/A,,Clear,0,2014-04-12 01:54:00
9:54 PM,45.0,33.1,63,30.01,10.0,East,3.5,-,N/A,,Clear,80,2014-04-12 02:54:00
10:54 PM,45.0,33.1,63,30.01,10.0,Calm,Calm,-,N/A,,Clear,0,2014-04-12 03:54:00
11:54 PM,43.0,33.1,68,30.01,10.0,Calm,Calm,-,N/A,,Clear,0,2014-04-12 04:54:00